Погода в Сейлеме

США     44°57′09″N   123°01′46″W
темп.,
°C
ветер,
м/с
пор.,
м/с
влажн.,
%
обл.,
%
осадки,
мм/ч
давл.,
гПа
погр.,
м
15 мая, сб
сб1523:00+10сз12890 0.0 101720
02:00+8сз22935 0.0 101820
05:00+6сз11930 0.0 101810
08:00+11ссз22730 0.0 1019232
11:00+17с35560 0.0 1018753
14:00+23с36400 0.0 10151355
17:00+25ссв36405 0.0 10131542
20:00+18сз23670 0.0 101369
16 мая, вс
вс1623:00+11зсз12840 0.0 101514
02:00+9сз11860 0.0 101510
05:00+7зсз11870 0.0 101610
08:00+12сз12710 0.0 1016189
11:00+19с11470 0.0 1015641
14:00+23св23450 0.0 1014950
17:00+24ссз12480 0.0 1012923
20:00+18сз25690 0.0 1012141
17 мая, пн
пн1723:00+11з12900 0.0 101529
02:00+8зсз22975 0.0 101621
05:00+7зюз119722 0.0 101610
08:00+11юз128537 0.0 1017317
11:00+17ю236397 0.0 10161013
14:00+22ююз3641100 0.0 10142085
17:00+19зюз574768 0.0 10141185
20:00+13юз486730 0.0 1017400
18 мая, вт
вт1823:00+10ю488055 0.0 1018383
02:00+10ююз488725 0.1 1019340
05:00+6з239610 0.3 102149
08:00+9ю1182100 0.0 1022276
11:00+15ююз1247100 0.0 10211711
14:00+14сз3350100 0.0 10201489
17:00+15зсз3450100 0.0 10201123
20:00+11зсз3758100 0.0 1020320
19 мая, ср
ср1923:00+6з2276100 0.0 102025
02:00+4з018954 0.0 101910
05:00+3ссв0092100 0.0 101910
08:00+7с2272100 0.0 1018264
11:00+10ссв2367100 0.0 1016537
14:00+14св2255100 0.0 1013999
17:00+13юв2264100 0.1 10111284
20:00+9ю1195100 2.4 101013